[[{"header":{"parameterUnit":"m.s-1","parameterCategory":1,"la1":30.2991,"la2":30.254,"lo1":-89.0895,"lo2":-89.0444,"dy":0.0017,"dx":0.0017,"nx":28,"ny":28,"refTime":"2023-10-19T09:00:00:Z","depth":0,"parameterNumber":2,"parameterNumberName":"U-component_of_WINDS"},"data":[0,0,0,0,0,0,0,0,0,0,0,0,0,0,0,0,0,0,0,0,0,0,0,0,0,0,0,0,0,0,0,0,0,0,0,0,0,0,0,0,0,0,0,0,0,0,0,0,0,0,0,0,0,0,0,0,0,0,5.2552,5.2553,0,5.2704,5.2706,5.2708,5.2669,5.2666,5.2663,5.266,5.282,5.2827,5.2834,0,0,0,0,0,0,0,0,0,0,0,0,0,5.2231,5.2237,5.2551,5.2553,5.2555,5.2704,5.2706,5.2708,5.2669,5.2665,5.2662,5.2658,5.2818,5.2826,5.2835,0,0,0,0,0,0,0,0,0,0,0,0,0,5.2376,5.2239,5.2551,5.2554,5.2555,5.2704,5.2706,5.2709,5.267,5.2665,5.2661,5.2657,5.2815,5.2825,5.2836,5.2992,0,0,5.2868,5.2873,0,0,0,0,0,0,0,0,5.2368,5.2388,5.2551,5.2554,5.2556,5.2663,5.2652,5.2804,5.2671,5.2627,5.266,5.2654,5.2772,5.2786,5.2824,5.3,5.3007,5.2869,5.2876,5.288,5.2883,0,0,0,0,0,0,0,5.2358,5.2381,5.2612,5.2554,5.2557,5.2549,5.2564,5.2681,5.2723,5.263,5.2628,5.2646,5.2772,5.2814,5.2828,5.3009,5.2869,5.2879,5.2885,5.2889,5.3324,5.3329,0,0,0,0,0,0,5.2345,5.2373,5.2607,5.2617,5.2449,5.2558,5.2576,5.2633,5.2721,5.273,5.265,5.2644,5.2798,5.2816,5.2833,5.3025,5.288,5.289,5.2896,5.3319,5.3325,5.3331,0,0,0,0,0,0,5.2338,5.2366,5.2601,5.2494,5.2523,5.2569,5.2633,5.2639,5.268,5.2736,5.2744,5.2685,5.2795,5.2818,5.2954,5.3029,5.2895,5.2905,5.3313,5.3321,5.3328,5.3407,0,0,0,0,0,0,5.2329,5.2364,5.2423,5.2496,5.2529,5.2717,5.2638,5.2645,5.2698,5.2692,5.2771,5.278,5.2794,5.2938,5.2964,5.3042,5.2913,5.3306,5.3316,5.3325,5.3398,5.3416,5.3432,0,0,0,0,0,5.2318,5.2439,5.2426,5.2454,5.2603,5.2722,5.2741,5.2753,5.2705,5.2765,5.2801,5.2777,5.3017,5.2952,5.2981,5.3063,5.3301,5.3313,5.3325,5.339,5.3413,5.3432,0,0,0,0,0,0,5.2375,5.2449,5.2435,5.2583,5.2646,5.2715,5.2791,5.2776,5.2856,5.2847,5.286,5.2878,5.3017,5.3053,5.298,5.3221,5.3152,5.317,5.3192,5.3214,5.3231,5.322,5.2922,0,0,0,0,0,5.2404,5.2493,5.2553,5.2678,5.2711,5.2746,5.2798,5.2802,5.2868,5.2895,5.2941,5.3008,5.3099,5.3158,5.3244,5.3402,5.3421,5.3473,5.3491,5.3505,5.3521,5.361,5.3635,5.3369,5.3369,5.3369,0,0,5.2467,5.2518,5.2573,5.2691,5.274,5.2834,5.2768,5.2869,5.294,5.2911,5.3042,5.3078,5.3154,5.3302,5.3369,5.3337,5.3598,5.3519,5.353,5.3539,5.3624,5.3649,5.3672,5.3377,5.3375,5.3374,0,0,5.2628,5.2675,5.2785,5.2837,5.2912,5.2935,5.2962,5.3033,5.3056,5.3187,5.3168,5.3253,5.3407,5.3463,5.3512,5.3697,5.3679,5.3724,5.3815,5.3902,5.3923,5.3942,5.401,5.4034,5.374,5.374,5.374,0,5.2697,5.2835,5.2844,5.2948,5.3002,5.2979,5.3092,5.3142,5.3243,5.3281,5.3242,5.3438,5.3487,5.3649,5.3694,5.3734,5.3766,5.3716,5.3919,5.3938,5.3956,5.4021,5.4047,5.3745,5.3745,5.3744,5.3744,0,5.2917,5.3014,5.3094,5.3191,5.3254,5.3362,5.3389,5.3451,5.345,5.3478,5.3613,5.3672,5.377,5.3809,5.3809,5.3972,5.395,5.3915,5.3847,5.3986,5.4048,5.4073,5.3753,5.3751,5.3749,5.3748,0,0,5.3119,5.322,5.325,5.3295,5.3378,5.3454,5.3562,5.3657,5.3712,5.3782,5.3875,5.4007,5.3977,5.4032,5.4038,5.4114,5.426,5.4071,5.4073,5.4106,5.4447,5.4473,5.4502,5.4248,5.4253,5.4257,5.4441,0,5.329,5.3478,5.3491,5.3662,5.3754,5.3734,5.3829,5.3891,5.392,5.4003,5.4035,5.413,5.4081,5.4114,5.4188,5.4226,5.4329,5.4213,5.4337,5.4341,5.432,5.4534,5.4562,5.4733,5.4465,5.4469,5.4472,0,5.3514,5.3591,5.3772,5.3844,5.3883,5.3967,5.4057,5.4136,5.4207,5.4223,5.4285,5.4282,5.4395,5.4321,5.4479,5.44,5.4452,5.4478,5.4485,5.4499,5.4416,5.4555,5.4788,5.4814,5.451,5.4507,5.4504,0,5.3646,5.3795,5.3923,5.3962,5.4048,5.4109,5.4148,5.4214,5.4272,5.4351,5.4389,5.448,5.4531,5.4603,5.4625,5.4569,5.4783,5.4711,5.4802,5.4802,5.4849,5.4846,5.5095,5.4879,5.4879,5.4878,5.4878,0,5.3837,5.3949,5.3984,5.4063,5.4189,5.4202,5.4327,5.4363,5.4423,5.451,5.4499,5.4581,5.4604,5.4691,5.4709,5.4839,5.4861,5.4879,5.4883,5.4881,5.4879,5.4916,5.4906,5.4885,5.4883,5.4882,5.4881,0,5.4006,5.4034,5.4172,5.4243,5.4264,5.4354,5.4415,5.4492,5.452,5.463,5.4657,5.4701,5.4804,5.4832,5.4955,5.4967,5.512,5.5112,5.5096,5.5097,5.5186,5.5178,5.547,5.5509,5.5265,5.5268,5.5269,0,5.4126,5.4212,5.4292,5.435,5.4391,5.4483,5.4542,5.4559,5.4621,5.471,5.4777,5.4878,5.4959,5.5124,5.5168,5.5263,5.5258,5.5354,5.5273,5.5269,5.5263,5.5258,5.5268,5.537,5.5372,5.5374,5.5376,0,5.4339,5.4348,5.4433,5.4523,5.4594,5.4666,5.4735,5.4783,5.481,5.4881,5.4985,5.5048,5.5174,5.5275,5.5371,5.5413,5.5401,5.5401,5.5428,5.5428,5.5416,5.5426,5.514,5.5395,5.5393,5.5392,5.5391,5.539,5.4489,5.4565,5.4634,5.4729,5.4783,5.4848,5.4925,5.4962,5.5049,5.5152,5.5157,5.5271,5.5342,5.547,5.5517,5.5608,5.558,5.5617,5.5627,5.5637,5.5645,5.54,5.5625,5.5625,5.5624,5.5624,5.5623,0,5.4702,5.4746,5.4833,5.493,5.5006,5.4986,5.5062,5.5127,5.5227,5.5294,5.5374,5.5495,5.5594,5.5646,5.5744,5.5807,5.5804,5.5833,5.5829,5.584,5.5664,5.5632,5.5834,5.5833,5.5833,5.5833,5.5833,5.5833,5.4822,5.4951,5.497,5.5126,5.5169,5.528,5.5325,5.5386,5.544,5.5575,5.5657,5.5689,5.5751,5.5854,5.5945,5.5957,5.5995,5.6028,5.6038,5.5873,5.5852,5.5831,5.5801,5.6035,5.6035,5.6206,5.6208,5.6209]},{"header":{"parameterUnit":"m.s-1","parameterCategory":1,"la1":30.2991,"la2":30.254,"lo1":-89.0895,"lo2":-89.0444,"dy":0.0017,"dx":0.0017,"nx":28,"ny":28,"refTime":"2023-10-19T09:00:00:Z","depth":0,"parameterNumber":3,"parameterNumberName":"V-component_of_WINDS"},"data":[0,0,0,0,0,0,0,0,0,0,0,0,0,0,0,0,0,0,0,0,0,0,0,0,0,0,0,0,0,0,0,0,0,0,0,0,0,0,0,0,0,0,0,0,0,0,0,0,0,0,0,0,0,0,0,0,0,0,0.6656,0.6657,0,0.6715,0.6716,0.6717,0.6701,0.6699,0.6698,0.6697,0.6759,0.6761,0.6764,0,0,0,0,0,0,0,0,0,0,0,0,0,0.6529,0.6532,0.6656,0.6657,0.6658,0.6715,0.6716,0.6717,0.6701,0.6699,0.6698,0.6697,0.6758,0.6761,0.6764,0,0,0,0,0,0,0,0,0,0,0,0,0,0.6586,0.6533,0.6656,0.6657,0.6657,0.6715,0.6716,0.6717,0.6701,0.6699,0.6698,0.6696,0.6757,0.6761,0.6765,0.6826,0,0,0.6777,0.6779,0,0,0,0,0,0,0,0,0.6583,0.6591,0.6656,0.6657,0.6657,0.6699,0.6694,0.6753,0.6702,0.6685,0.6697,0.6695,0.674,0.6745,0.676,0.6828,0.6831,0.6777,0.678,0.6782,0.6783,0,0,0,0,0,0,0,0.6579,0.6588,0.668,0.6657,0.6658,0.6654,0.666,0.6705,0.6722,0.6686,0.6685,0.6692,0.674,0.6757,0.6762,0.6832,0.6777,0.6781,0.6784,0.6785,0.6952,0.6953,0,0,0,0,0,0,0.6574,0.6585,0.6678,0.6681,0.6615,0.6658,0.6664,0.6687,0.6721,0.6725,0.6693,0.6691,0.675,0.6757,0.6764,0.6837,0.6782,0.6786,0.6788,0.695,0.6952,0.6954,0,0,0,0,0,0,0.6572,0.6583,0.6675,0.6633,0.6644,0.6662,0.6688,0.6689,0.6706,0.6727,0.673,0.6707,0.6749,0.6758,0.681,0.6839,0.6787,0.6791,0.6947,0.695,0.6953,0.6984,0,0,0,0,0,0,0.6568,0.6582,0.6605,0.6634,0.6647,0.6721,0.6689,0.6692,0.6713,0.671,0.674,0.6744,0.6749,0.6804,0.6814,0.6844,0.6794,0.6945,0.6949,0.6952,0.698,0.6988,0.6994,0,0,0,0,0,0.6564,0.6612,0.6607,0.6618,0.6676,0.6722,0.673,0.6734,0.6715,0.6739,0.6752,0.6743,0.6834,0.6809,0.6821,0.6852,0.6943,0.6948,0.6952,0.6977,0.6986,0.6993,0,0,0,0,0,0,0.6588,0.6616,0.661,0.6669,0.6693,0.672,0.675,0.6744,0.6774,0.677,0.6774,0.6781,0.6834,0.6848,0.682,0.6912,0.6886,0.6893,0.6901,0.691,0.6916,0.6912,0.6798,0,0,0,0,0,0.66,0.6635,0.6657,0.6707,0.672,0.6733,0.6753,0.6754,0.6779,0.679,0.6807,0.6832,0.6866,0.6888,0.6921,0.6982,0.6988,0.7009,0.7015,0.7021,0.7027,0.7059,0.7068,0.6969,0.6969,0.6968,0,0,0.6626,0.6645,0.6667,0.6713,0.6732,0.6767,0.6741,0.6781,0.6807,0.6796,0.6846,0.6859,0.6887,0.6943,0.6969,0.6957,0.7055,0.7026,0.703,0.7034,0.7065,0.7074,0.7082,0.6972,0.6971,0.6971,0,0,0.6691,0.6709,0.6752,0.6771,0.68,0.6808,0.6818,0.6845,0.6853,0.6903,0.6895,0.6926,0.6985,0.7005,0.7023,0.7094,0.7086,0.7105,0.7139,0.7171,0.7179,0.7186,0.7211,0.722,0.711,0.711,0.7111,0,0.6719,0.6773,0.6775,0.6815,0.6835,0.6825,0.6869,0.6887,0.6925,0.6939,0.6924,0.6997,0.7016,0.7076,0.7093,0.7108,0.712,0.7102,0.7177,0.7184,0.7191,0.7215,0.7224,0.7112,0.7112,0.7112,0.7112,0,0.6806,0.6843,0.6875,0.6911,0.6934,0.6976,0.6985,0.7008,0.7006,0.7016,0.7066,0.7088,0.7124,0.7138,0.7138,0.7198,0.719,0.7176,0.715,0.7202,0.7225,0.7234,0.7115,0.7115,0.7114,0.7114,0,0,0.6889,0.6925,0.6937,0.6953,0.6983,0.7011,0.7052,0.7087,0.7107,0.7133,0.7167,0.7216,0.7203,0.7224,0.7225,0.7252,0.7306,0.7235,0.7236,0.7248,0.7374,0.7384,0.7395,0.7301,0.7303,0.7304,0.7372,0,0.6957,0.7028,0.7031,0.7096,0.713,0.712,0.7156,0.7178,0.7187,0.7217,0.7228,0.7262,0.7243,0.7255,0.7282,0.7294,0.7332,0.7289,0.7333,0.7334,0.7326,0.7407,0.7418,0.7481,0.7381,0.7382,0.7383,0,0.7046,0.7074,0.7142,0.7166,0.718,0.7212,0.7244,0.7273,0.7297,0.7302,0.7324,0.7321,0.7362,0.7333,0.739,0.7361,0.7378,0.7387,0.7389,0.7394,0.7362,0.7414,0.7501,0.7511,0.7397,0.7396,0.7395,0,0.7099,0.7154,0.7202,0.7216,0.7245,0.7267,0.7281,0.7303,0.7324,0.7351,0.7364,0.7397,0.7414,0.7439,0.7444,0.7423,0.7501,0.7473,0.7506,0.7506,0.7523,0.7522,0.7615,0.7534,0.7534,0.7534,0.7533,0,0.7174,0.7217,0.7226,0.7256,0.7302,0.7305,0.7351,0.7362,0.7382,0.7413,0.7407,0.7436,0.7441,0.7472,0.7476,0.7522,0.753,0.7535,0.7536,0.7536,0.7535,0.7548,0.7544,0.7536,0.7536,0.7535,0.7535,0,0.7243,0.7251,0.7302,0.7325,0.7332,0.7365,0.7385,0.7413,0.7421,0.746,0.747,0.7483,0.7518,0.7525,0.7568,0.757,0.7625,0.7621,0.7616,0.7616,0.7649,0.7645,0.7753,0.7767,0.7677,0.7678,0.7678,0,0.729,0.7323,0.7349,0.7369,0.7383,0.7416,0.7437,0.744,0.7461,0.7491,0.7515,0.755,0.7577,0.7634,0.7647,0.7679,0.7676,0.7712,0.7681,0.768,0.7677,0.7675,0.7678,0.7718,0.7719,0.7719,0.772,0,0.7374,0.7376,0.7406,0.7437,0.7462,0.7487,0.751,0.7527,0.7533,0.7558,0.7594,0.7615,0.7657,0.7691,0.7723,0.7736,0.7729,0.7729,0.7739,0.7739,0.7735,0.7738,0.7633,0.7727,0.7726,0.7726,0.7726,0.7725,0.7434,0.7461,0.7484,0.7517,0.7535,0.7557,0.7584,0.7595,0.7625,0.7659,0.7659,0.7698,0.7721,0.7762,0.7777,0.7808,0.7796,0.781,0.7813,0.7817,0.782,0.773,0.7813,0.7813,0.7813,0.7813,0.7813,0,0.7517,0.7531,0.7561,0.7594,0.762,0.761,0.7635,0.7658,0.7692,0.7713,0.774,0.7781,0.7814,0.7829,0.7861,0.7882,0.788,0.7891,0.7889,0.7892,0.7828,0.7817,0.7892,0.7892,0.7892,0.7892,0.7892,0.7892,0.7564,0.761,0.7614,0.7669,0.7682,0.772,0.7735,0.7755,0.7772,0.7818,0.7845,0.7854,0.7873,0.7906,0.7935,0.7939,0.7951,0.7963,0.7965,0.7905,0.7897,0.7889,0.7879,0.7966,0.7966,0.8027,0.8028,0.8028]}]]